Precipitable_Water
1.15 1.13 1.10 1.08 1.04 1.00 0.97 0.94 0.91 0.82 0.70 0.62 0.58 0.50 0.43 0.40 0.40 0.40 0.40 0.46 0.52 0.56 0.63 0.61 0.58 0.58 0.59 0.55 0.53 0.51 0.50 0.49 0.48 0.48 0.49 0.51 0.53 0.59 0.58 0.57 0.62 0.68 0.74
1.14 1.09 1.05 1.00 0.96 0.97 0.96 0.92 0.81 0.67 0.60 0.58 0.53 0.44 0.40 0.40 0.40 0.37 0.39 0.41 0.54 0.57 0.61 0.61 0.60 0.58 0.58 0.56 0.55 0.54 0.54 0.54 0.50 0.51 0.53 0.52 0.51 0.50 0.52 0.53 0.54 0.57 0.64
1.08 1.03 0.99 0.97 0.96 0.95 0.92 0.80 0.68 0.63 0.60 0.58 0.47 0.42 0.41 0.40 0.39 0.38 0.40 0.43 0.55 0.63 0.61 0.59 0.57 0.57 0.57 0.56 0.56 0.54 0.52 0.54 0.54 0.61 0.58 0.54 0.51 0.47 0.46 0.47 0.48 0.50 0.54
1.01 1.00 0.96 0.95 0.97 0.91 0.75 0.68 0.64 0.61 0.59 0.53 0.46 0.43 0.40 0.40 0.40 0.39 0.41 0.44 0.52 0.59 0.61 0.54 0.53 0.51 0.51 0.52 0.52 0.52 0.51 0.50 0.51 0.52 0.57 0.55 0.52 0.50 0.46 0.45 0.48 0.48 0.46
1.00 0.99 0.97 0.94 0.84 0.71 0.68 0.67 0.66 0.62 0.55 0.50 0.46 0.45 0.42 0.38 0.39 0.40 0.39 0.41 0.42 0.46 0.49 0.47 0.43 0.43 0.43 0.44 0.44 0.45 0.45 0.45 0.47 0.51 0.50 0.52 0.50 0.49 0.46 0.42 0.45 0.49 0.49
0.95 0.94 0.88 0.76 0.72 0.70 0.70 0.69 0.64 0.61 0.54 0.50 0.47 0.43 0.42 0.40 0.38 0.36 0.37 0.39 0.40 0.40 0.41 0.39 0.39 0.39 0.40 0.38 0.38 0.38 0.39 0.40 0.44 0.42 0.40 0.41 0.47 0.42 0.39 0.40 0.40 0.45 0.50
0.88 0.79 0.74 0.72 0.72 0.70 0.69 0.67 0.63 0.53 0.50 0.49 0.42 0.42 0.39 0.41 0.39 0.38 0.37 0.35 0.34 0.34 0.35 0.35 0.36 0.36 0.35 0.34 0.33 0.35 0.35 0.36 0.37 0.35 0.34 0.35 0.36 0.36 0.37 0.38 0.38 0.40 0.44
0.77 0.75 0.74 0.73 0.73 0.71 0.67 0.64 0.56 0.51 0.48 0.46 0.39 0.37 0.32 0.36 0.38 0.40 0.38 0.38 0.33 0.33 0.33 0.31 0.31 0.30 0.30 0.29 0.30 0.31 0.32 0.31 0.31 0.30 0.31 0.33 0.34 0.36 0.35 0.35 0.36 0.37 0.41
0.77 0.77 0.77 0.76 0.74 0.71 0.68 0.66 0.58 0.52 0.46 0.46 0.45 0.39 0.33 0.30 0.35 0.39 0.38 0.35 0.35 0.35 0.36 0.35 0.34 0.32 0.32 0.30 0.28 0.27 0.28 0.28 0.30 0.30 0.29 0.30 0.32 0.33 0.36 0.36 0.36 0.36 0.37
0.77 0.80 0.77 0.74 0.72 0.73 0.72 0.67 0.63 0.57 0.53 0.44 0.45 0.46 0.46 0.43 0.34 0.31 0.36 0.38 0.38 0.37 0.38 0.36 0.34 0.32 0.30 0.28 0.27 0.26 0.26 0.26 0.26 0.28 0.29 0.30 0.31 0.32 0.33 0.35 0.35 0.36 0.40
0.81 0.80 0.78 0.76 0.72 0.73 0.71 0.63 0.59 0.56 0.51 0.42 0.40 0.42 0.42 0.41 0.40 0.34 0.29 0.31 0.38 0.39 0.38 0.37 0.35 0.33 0.32 0.30 0.28 0.26 0.28 0.27 0.26 0.27 0.28 0.29 0.29 0.31 0.32 0.34 0.34 0.33 0.34
0.80 0.78 0.78 0.75 0.74 0.70 0.64 0.60 0.53 0.45 0.37 0.38 0.40 0.42 0.41 0.38 0.35 0.37 0.32 0.33 0.33 0.35 0.38 0.39 0.36 0.35 0.32 0.30 0.31 0.29 0.30 0.26 0.24 0.26 0.27 0.29 0.29 0.29 0.30 0.32 0.33 0.35 0.34
0.77 0.78 0.75 0.70 0.68 0.66 0.61 0.54 0.43 0.39 0.38 0.40 0.41 0.40 0.44 0.44 0.44 0.42 0.38 0.35 0.33 0.34 0.35 0.37 0.36 0.34 0.32 0.31 0.30 0.29 0.27 0.25 0.25 0.26 0.27 0.27 0.27 0.26 0.26 0.28 0.30 0.31 0.32
0.77 0.75 0.74 0.73 0.67 0.61 0.52 0.47 0.42 0.40 0.44 0.43 0.41 0.42 0.43 0.45 0.45 0.40 0.38 0.36 0.31 0.29 0.28 0.28 0.32 0.31 0.30 0.30 0.27 0.26 0.25 0.24 0.24 0.24 0.23 0.22 0.23 0.24 0.26 0.28 0.29 0.29 0.30
0.73 0.79 0.69 0.64 0.67 0.57 0.52 0.47 0.41 0.42 0.44 0.43 0.43 0.42 0.44 0.43 0.43 0.43 0.43 0.41 0.33 0.25 0.23 0.26 0.24 0.27 0.26 0.23 0.22 0.22 0.21 0.20 0.21 0.21 0.21 0.22 0.25 0.26 0.28 0.29 0.30 0.30 0.31
0.74 0.70 0.70 0.69 0.61 0.53 0.48 0.42 0.43 0.45 0.43 0.42 0.40 0.39 0.39 0.41 0.41 0.40 0.38 0.36 0.33 0.29 0.20 0.23 0.21 0.19 0.19 0.18 0.18 0.19 0.18 0.20 0.19 0.21 0.23 0.25 0.26 0.27 0.28 0.29 0.29 0.29 0.30
0.75 0.74 0.73 0.60 0.51 0.46 0.42 0.45 0.45 0.43 0.41 0.40 0.39 0.38 0.38 0.37 0.34 0.32 0.30 0.28 0.26 0.24 0.18 0.17 0.17 0.17 0.16 0.15 0.16 0.18 0.20 0.21 0.22 0.23 0.24 0.26 0.26 0.27 0.27 0.28 0.28 0.28 0.30
0.72 0.68 0.61 0.54 0.51 0.50 0.49 0.46 0.42 0.44 0.42 0.39 0.37 0.36 0.35 0.34 0.29 0.28 0.26 0.23 0.21 0.19 0.17 0.14 0.15 0.15 0.15 0.15 0.17 0.18 0.20 0.21 0.22 0.24 0.24 0.25 0.25 0.25 0.27 0.27 0.29 0.28 0.28
0.64 0.61 0.57 0.55 0.53 0.50 0.46 0.45 0.43 0.43 0.42 0.40 0.38 0.34 0.31 0.29 0.26 0.25 0.23 0.20 0.19 0.19 0.18 0.15 0.14 0.16 0.14 0.17 0.18 0.20 0.21 0.22 0.23 0.22 0.21 0.22 0.22 0.23 0.27 0.28 0.27 0.27 0.26
0.61 0.59 0.59 0.56 0.51 0.49 0.48 0.46 0.46 0.43 0.43 0.40 0.37 0.34 0.32 0.28 0.23 0.21 0.20 0.19 0.19 0.18 0.17 0.15 0.14 0.13 0.14 0.17 0.19 0.19 0.18 0.20 0.19 0.20 0.21 0.22 0.23 0.24 0.23 0.23 0.24 0.24 0.25
0.62 0.59 0.54 0.51 0.51 0.48 0.47 0.46 0.43 0.41 0.41 0.39 0.36 0.33 0.30 0.26 0.23 0.23 0.20 0.19 0.19 0.17 0.15 0.13 0.12 0.13 0.14 0.15 0.17 0.19 0.18 0.19 0.20 0.22 0.22 0.23 0.24 0.23 0.22 0.23 0.23 0.22 0.24
0.60 0.56 0.53 0.49 0.46 0.46 0.45 0.44 0.43 0.39 0.39 0.38 0.34 0.32 0.30 0.28 0.24 0.23 0.22 0.21 0.20 0.17 0.14 0.13 0.12 0.12 0.13 0.17 0.18 0.17 0.18 0.19 0.17 0.23 0.23 0.20 0.24 0.22 0.25 0.25 0.23 0.23 0.25
0.57 0.54 0.48 0.46 0.43 0.44 0.42 0.41 0.39 0.37 0.36 0.35 0.33 0.31 0.29 0.29 0.25 0.22 0.21 0.21 0.20 0.18 0.17 0.13 0.12 0.14 0.15 0.16 0.18 0.18 0.21 0.22 0.21 0.23 0.23 0.19 0.22 0.21 0.25 0.26 0.26 0.25 0.26
0.52 0.46 0.44 0.41 0.39 0.37 0.36 0.37 0.36 0.35 0.35 0.33 0.32 0.32 0.31 0.28 0.24 0.22 0.21 0.19 0.18 0.17 0.14 0.14 0.16 0.16 0.17 0.21 0.22 0.24 0.25 0.24 0.23 0.23 0.24 0.18 0.24 0.22 0.25 0.27 0.26 0.29 0.29
0.41 0.37 0.35 0.33 0.32 0.31 0.32 0.34 0.34 0.34 0.33 0.32 0.32 0.33 0.30 0.28 0.24 0.23 0.21 0.18 0.16 0.15 0.15 0.17 0.18 0.18 0.19 0.21 0.23 0.23 0.22 0.21 0.18 0.20 0.24 0.24 0.25 0.24 0.25 0.24 0.24 0.28 0.29
0.34 0.32 0.29 0.29 0.28 0.27 0.31 0.33 0.33 0.32 0.30 0.30 0.31 0.31 0.29 0.25 0.24 0.23 0.20 0.18 0.14 0.13 0.14 0.16 0.17 0.18 0.17 0.18 0.19 0.21 0.22 0.21 0.20 0.18 0.23 0.23 0.23 0.25 0.20 0.25 0.26 0.27 0.26
Wind_Speed
9 9 10 10 11 12 12 14 15 18 19 21 22 23 24 24 25 26 26 26 25 24 23 23 23 23 23 23 23 23 24 25 25 26 26 26 26 25 25 25 25 25 23
9 10 10 11 11 11 13 15 18 19 21 22 24 25 26 26 27 28 28 27 25 24 24 24 24 25 25 25 25 25 26 27 28 29 29 29 30 30 29 29 29 28 27
10 10 11 12 12 14 16 18 19 21 23 25 25 26 28 28 29 28 27 27 25 24 24 25 26 25 27 28 29 30 30 31 32 32 33 33 34 34 34 33 33 32 31
11 12 14 14 15 16 17 19 21 23 25 26 26 28 29 29 28 27 26 25 24 24 24 25 26 28 29 30 32 33 35 36 37 38 38 39 38 38 38 38 37 36 35
13 14 14 15 15 17 19 21 23 25 26 27 28 30 29 30 28 27 27 25 24 24 26 28 31 33 34 35 36 37 39 40 41 42 43 42 42 42 42 42 41 41 40
11 12 13 15 17 19 21 24 25 26 28 29 30 31 31 28 29 28 27 27 28 29 31 33 34 35 37 38 40 42 44 44 44 46 48 47 46 46 45 45 45 44 44
12 13 15 17 19 22 24 26 28 28 30 31 31 32 31 28 29 28 32 31 32 33 35 37 38 39 41 43 45 47 48 48 48 49 49 49 50 50 49 48 47 47 47
14 15 17 20 22 24 26 29 29 30 32 32 32 33 31 33 30 34 31 35 35 36 37 39 41 42 44 46 48 50 51 52 53 52 52 52 51 52 51 51 50 50 49
17 19 21 24 25 28 30 31 31 32 33 34 34 33 33 33 36 34 38 35 36 39 40 41 43 44 47 49 51 52 54 54 54 52 51 50 50 51 52 52 52 52 51
20 23 25 26 27 29 31 31 33 34 35 36 36 36 36 36 37 39 37 41 42 42 44 44 44 47 48 50 50 52 52 52 49 47 46 46 46 47 48 50 51 52 52
23 25 26 27 28 31 33 33 34 36 37 38 38 38 38 38 39 41 42 42 44 46 45 45 47 47 49 51 52 50 49 44 42 42 42 43 43 44 46 47 49 51 52
25 26 27 29 30 33 33 34 36 37 38 39 40 39 39 39 41 42 44 45 45 46 45 46 47 48 50 50 48 46 41 39 39 39 39 40 42 43 45 46 47 49 50
27 28 29 31 34 35 35 36 38 39 40 40 40 40 40 42 44 44 45 45 46 46 46 47 47 48 47 46 43 38 37 38 38 39 40 41 43 43 43 44 45 46 48
28 29 30 35 36 36 37 38 39 40 38 39 39 41 43 44 45 45 45 45 46 46 45 45 46 44 44 41 39 38 38 39 40 41 42 42 41 40 40 40 41 42 43
30 32 35 37 38 38 39 39 40 39 40 41 43 43 44 44 43 42 42 42 42 43 44 44 43 44 42 40 39 39 39 41 40 39 39 38 36 36 35 36 37 38 40
33 36 38 39 38 39 39 40 39 41 42 43 43 42 42 42 42 43 42 42 42 42 43 43 43 41 39 39 38 38 38 38 37 36 34 34 33 33 33 34 35 37 38
37 39 40 37 39 38 39 40 41 42 42 43 43 43 42 42 41 40 40 41 40 41 42 43 41 38 37 37 36 35 34 33 32 32 32 31 32 32 32 33 34 34 36
40 39 37 38 39 40 41 42 42 43 44 44 43 42 42 41 41 41 41 40 40 40 40 41 37 35 35 34 33 32 32 32 32 31 32 32 33 33 34 34 34 35 36
37 37 37 38 40 41 42 43 43 44 44 43 41 41 40 40 41 40 39 39 38 39 38 36 35 34 33 31 31 31 30 30 31 32 33 33 33 32 32 33 34 35 35
36 36 39 40 42 44 44 45 45 45 43 42 41 41 41 41 40 39 39 38 37 36 34 34 33 32 31 30 30 30 29 30 31 30 29 28 29 30 31 32 32 32 33
37 38 39 43 46 45 45 45 44 43 42 41 40 41 40 40 40 38 36 35 34 33 32 31 31 30 29 28 28 29 29 29 27 25 25 26 26 26 27 27 28 29 30
37 40 45 46 45 45 44 44 43 41 41 41 41 41 40 40 38 36 34 32 30 30 29 29 28 28 27 27 28 28 28 25 23 23 24 25 23 23 24 25 26 28 29
41 45 44 44 45 43 43 43 42 41 41 41 40 40 39 38 35 33 30 28 28 28 28 27 27 26 26 27 27 26 25 24 24 24 24 23 22 22 23 24 25 26 28
42 42 43 44 43 43 43 43 42 41 40 40 39 39 37 35 33 29 27 27 26 27 26 25 25 25 25 25 25 25 24 23 22 23 22 21 22 23 23 23 23 22 21
41 41 42 43 44 44 43 41 40 40 40 39 37 35 33 32 30 27 25 25 25 25 24 23 24 24 25 24 24 23 22 21 21 20 20 19 21 21 21 21 19 19 20
40 42 42 43 44 42 40 40 39 38 38 36 34 32 31 28 26 25 24 23 23 22 21 21 22 23 23 23 23 22 21 20 20 19 17 20 21 19 18 18 17 19 19
Wind_Direction
257 268 274 282 292 297 296 303 310 313 315 317 319 319 318 316 314 312 309 305 301 298 295 294 295 296 294 296 296 295 294 291 288 286 284 282 280 279 278 276 275 274 273
260 271 280 285 291 294 299 302 308 310 312 315 316 317 316 315 313 311 308 307 300 297 294 293 293 294 293 293 294 294 295 292 290 287 284 282 279 278 277 276 273 271 269
266 273 280 287 291 294 298 302 306 308 310 313 314 315 314 314 313 313 312 305 300 296 295 295 294 293 293 293 292 292 293 291 290 288 284 282 279 277 275 274 271 269 267
271 274 281 286 290 293 298 302 305 307 309 311 312 313 314 313 312 314 314 313 304 297 295 298 297 295 294 293 292 291 290 290 289 286 284 282 279 277 275 272 270 268 265
276 277 280 283 289 295 299 303 305 307 308 309 310 312 312 311 310 311 311 309 307 302 298 297 297 296 295 294 293 292 291 289 287 285 283 281 279 276 275 271 269 266 264
276 278 283 289 293 298 302 304 305 306 307 308 309 310 309 307 309 307 307 304 303 301 299 298 298 297 295 295 294 293 291 289 286 284 282 279 278 276 274 270 267 265 263
283 285 288 293 297 300 302 305 305 306 307 307 307 308 307 303 304 304 304 302 301 299 298 298 297 296 295 295 295 294 291 289 286 284 281 278 276 275 273 269 266 263 261
286 287 291 294 296 299 302 305 305 306 306 307 307 307 306 304 299 305 301 302 300 300 299 298 298 297 296 296 296 295 292 289 286 283 281 277 274 273 272 269 266 263 260
287 290 293 295 296 299 301 302 303 304 305 307 306 305 305 302 303 301 303 301 301 301 300 298 298 297 297 297 296 295 294 291 286 282 280 276 274 272 269 266 264 262 258
288 292 295 298 299 301 302 301 302 303 304 305 305 303 302 301 303 303 303 302 303 302 301 299 299 299 298 298 296 296 294 290 285 281 279 276 274 272 268 265 263 261 258
290 293 295 297 300 302 302 301 303 303 303 303 303 302 301 301 301 301 303 303 303 303 302 300 302 300 301 300 298 297 295 289 285 281 279 277 275 273 270 266 263 260 257
292 295 295 297 299 304 302 302 303 304 304 304 304 302 301 302 302 302 302 301 301 304 303 301 301 301 301 301 298 296 291 288 286 283 281 279 277 275 272 268 264 260 258
293 296 296 301 302 303 302 303 305 304 305 303 303 302 301 301 301 301 301 301 302 304 303 302 302 302 302 301 299 294 291 289 287 285 283 281 279 276 273 269 265 262 258
292 297 300 301 301 302 303 303 304 304 304 304 303 302 302 302 301 301 300 301 302 303 304 304 304 303 303 301 297 294 292 290 289 287 285 283 280 277 273 269 265 262 259
298 294 301 301 300 300 301 302 301 302 303 303 303 302 302 303 303 303 303 303 303 305 306 306 305 304 302 299 297 294 293 292 290 288 286 284 281 277 274 269 266 263 260
294 295 299 299 299 300 300 300 300 301 303 303 304 303 303 303 303 303 302 303 303 303 305 306 305 304 301 300 298 296 295 293 292 289 287 284 281 277 274 272 268 265 262
294 297 298 298 298 299 300 301 301 302 303 304 303 303 303 303 303 304 305 305 304 305 305 306 305 304 302 301 300 298 297 295 293 291 288 285 282 278 275 273 271 268 264
296 297 296 298 299 299 300 300 300 301 303 304 302 302 303 302 302 303 304 304 304 305 306 306 305 304 303 303 302 301 299 298 295 292 289 286 283 280 277 274 270 269 266
297 297 297 298 300 301 300 300 300 301 302 303 302 302 302 302 303 304 304 304 305 306 307 306 305 305 304 304 304 303 302 299 297 295 292 287 283 281 278 274 271 269 267
297 297 298 299 300 301 301 300 300 300 300 301 301 302 302 303 303 303 303 304 305 306 306 306 306 306 305 305 305 305 304 303 301 299 297 294 287 280 279 277 273 270 268
298 299 300 302 302 301 301 301 300 300 299 299 300 302 303 303 303 303 303 304 304 305 306 307 307 307 306 307 307 307 305 306 303 301 301 299 294 288 283 278 275 272 269
299 301 302 302 302 302 302 301 300 299 298 298 300 301 302 303 304 303 303 302 303 305 307 308 308 307 308 308 309 308 308 307 306 305 306 302 299 294 289 285 279 275 272
301 302 303 303 303 302 302 301 299 298 299 300 299 300 302 303 303 301 300 300 303 306 308 308 308 308 309 310 311 310 309 306 304 305 308 303 300 296 295 291 286 281 275
301 303 303 304 303 303 302 301 299 299 299 300 299 299 300 302 300 298 298 299 302 306 309 310 310 311 312 312 312 311 310 308 307 309 311 308 306 299 297 295 288 287 280
303 304 304 305 304 304 303 302 300 300 300 299 300 300 300 300 298 295 296 297 302 306 309 311 313 315 316 315 315 314 312 310 310 311 315 312 316 311 306 299 289 284 286
305 306 307 307 306 305 304 303 303 302 300 299 299 299 299 299 296 293 293 296 300 303 307 312 316 319 319 319 318 315 313 309 309 310 315 316 318 317 313 309 299 290 286